TAR375 DAAG-DTTA

Flight info

Callsign TAR375
Flight time N/A
Altitude 37000
Route BJA1C BJA UA411 MORJA UM978 KEMIR UA411 TUC
Aircraft A320/M-SDE3FGHIRWY/LB1

Departure

Time 2026-05-07 19:41
Airport Houari Boumediene Airport (DAAG)

Arrival

Time N/A
Airport Tunis Carthage International Airport (DTTA)
Time Latitude Longitude Altitude Speed Heading
2026-05-07 19:29 36.69718 3.21420 60 ft 0 kts 30°
2026-05-07 19:38 36.69720 3.21421 69 ft 2 kts 30°
2026-05-07 19:38 36.69730 3.21443 62 ft 4 kts 105°
2026-05-07 19:38 36.69697 3.21486 68 ft 10 kts 153°
2026-05-07 19:39 36.69621 3.21515 68 ft 11 kts 164°
2026-05-07 19:39 36.69552 3.21510 68 ft 9 kts 206°
2026-05-07 19:39 36.69505 3.21474 62 ft 7 kts 212°
2026-05-07 19:39 36.69450 3.21470 68 ft 11 kts 168°
2026-05-07 19:40 36.69412 3.21565 64 ft 18 kts 114°
2026-05-07 19:40 36.69418 3.21770 63 ft 30 kts 69°
2026-05-07 19:40 36.69434 3.22082 59 ft 48 kts 79°
2026-05-07 19:40 36.69704 3.22576 62 ft 100 kts 48°
2026-05-07 19:41 36.70256 3.23440 64 ft 153 kts 53°
2026-05-07 19:41 36.70971 3.24619 296 ft 178 kts 53°
2026-05-07 19:41 36.71723 3.25859 992 ft 181 kts 50°
2026-05-07 19:41 36.72532 3.27063 1740 ft 185 kts 46°
2026-05-07 19:42 36.73399 3.28281 2528 ft 191 kts 45°
2026-05-07 19:42 36.74321 3.29519 3329 ft 195 kts 48°
2026-05-07 19:42 36.74869 3.31113 3735 ft 218 kts 91°
2026-05-07 19:42 36.74577 3.33047 4133 ft 240 kts 106°
2026-05-07 19:43 36.74109 3.35185 4532 ft 264 kts 106°
2026-05-07 19:43 36.73607 3.37466 5074 ft 280 kts 107°
2026-05-07 19:43 36.73082 3.39842 5902 ft 286 kts 107°
2026-05-07 19:43 36.72591 3.42271 6732 ft 291 kts 101°
2026-05-07 19:44 36.72391 3.44765 7507 ft 297 kts 92°
2026-05-07 19:44 36.72380 3.47363 8316 ft 302 kts 89°
2026-05-07 19:44 36.72446 3.50005 9121 ft 307 kts 88°
2026-05-07 19:44 36.72525 3.52693 9893 ft 313 kts 89°
2026-05-07 19:45 36.72586 3.55455 10349 ft 330 kts 89°
2026-05-07 19:45 36.72625 3.58414 10607 ft 352 kts 90°
2026-05-07 19:45 36.72642 3.61514 11170 ft 361 kts 91°
2026-05-07 19:45 36.72645 3.64673 11868 ft 367 kts 91°
2026-05-07 19:46 36.72637 3.67873 12584 ft 371 kts 92°
2026-05-07 19:46 36.72624 3.71115 13291 ft 376 kts 92°
2026-05-07 19:46 36.72609 3.74383 13968 ft 380 kts 92°
2026-05-07 19:46 36.72593 3.77699 14560 ft 385 kts 92°
2026-05-07 19:47 36.72579 3.81073 15116 ft 391 kts 92°
2026-05-07 19:47 36.72565 3.84479 15662 ft 397 kts 92°
2026-05-07 19:47 36.72553 3.87945 16225 ft 402 kts 92°
2026-05-07 19:47 36.72540 3.91460 16795 ft 407 kts 93°
2026-05-07 19:48 36.72527 3.95015 17387 ft 412 kts 93°
2026-05-07 19:48 36.72512 3.98598 17925 ft 418 kts 93°
2026-05-07 19:48 36.72496 4.02245 18454 ft 423 kts 93°
2026-05-07 19:48 36.72479 4.05937 18933 ft 428 kts 93°
2026-05-07 19:49 36.72464 4.09682 19395 ft 434 kts 93°
2026-05-07 19:49 36.72448 4.13459 19880 ft 438 kts 92°
2026-05-07 19:49 36.72426 4.17283 20356 ft 443 kts 92°
2026-05-07 19:49 36.72400 4.21134 20832 ft 448 kts 92°
2026-05-07 19:50 36.72373 4.25037 21338 ft 452 kts 92°
2026-05-07 19:50 36.72345 4.28939 21818 ft 456 kts 91°
2026-05-07 19:50 36.72318 4.32955 22339 ft 461 kts 91°
2026-05-07 19:50 36.72288 4.36975 22851 ft 466 kts 91°
2026-05-07 19:51 36.72258 4.41049 23327 ft 471 kts 91°
2026-05-07 19:51 36.72227 4.45146 23742 ft 475 kts 91°
2026-05-07 19:51 36.72194 4.49228 24143 ft 478 kts 91°
2026-05-07 19:51 36.72159 4.53371 24560 ft 480 kts 91°
2026-05-07 19:52 36.72123 4.57545 24959 ft 483 kts 91°
2026-05-07 19:52 36.72085 4.61723 25429 ft 482 kts 91°
2026-05-07 19:52 36.72045 4.65910 25860 ft 483 kts 91°
2026-05-07 19:52 36.72000 4.70117 26218 ft 485 kts 91°
2026-05-07 19:53 36.71951 4.74325 26593 ft 488 kts 91°
2026-05-07 19:53 36.71899 4.78566 26970 ft 490 kts 91°
2026-05-07 19:53 36.71849 4.82820 27345 ft 492 kts 91°
2026-05-07 19:53 36.71801 4.87087 27705 ft 494 kts 91°
2026-05-07 19:54 36.71755 4.91382 28047 ft 497 kts 91°
2026-05-07 19:54 36.71709 4.95657 28369 ft 499 kts 91°
2026-05-07 19:54 36.71659 5.00021 28849 ft 497 kts 92°
2026-05-07 19:54 36.71605 5.04328 29282 ft 498 kts 92°
2026-05-07 19:55 36.71678 5.08658 29646 ft 500 kts 85°
2026-05-07 19:55 36.72096 5.12965 29950 ft 502 kts 83°
2026-05-07 19:55 36.72546 5.17228 30200 ft 504 kts 82°
2026-05-07 19:55 36.73007 5.21577 30442 ft 505 kts 83°
2026-05-07 19:56 36.73466 5.25917 30677 ft 507 kts 83°
2026-05-07 19:56 36.73928 5.30285 30899 ft 508 kts 83°
2026-05-07 19:56 36.74389 5.34662 31112 ft 509 kts 83°
2026-05-07 19:56 36.74847 5.39036 31533 ft 505 kts 84°
2026-05-07 19:57 36.75295 5.43356 31952 ft 501 kts 84°
2026-05-07 19:57 36.75737 5.47654 32334 ft 499 kts 84°
2026-05-07 19:57 36.76176 5.51956 32648 ft 498 kts 84°
2026-05-07 19:57 36.76610 5.56226 32964 ft 497 kts 85°
2026-05-07 19:58 36.77044 5.60515 33281 ft 496 kts 85°
2026-05-07 19:58 36.77329 5.63341 33492 ft 496 kts 85°
2026-05-07 19:58 36.77906 5.69044 33924 ft 495 kts 85°
2026-05-07 19:58 36.78338 5.73295 34207 ft 494 kts 86°
2026-05-07 19:59 36.78769 5.77549 34476 ft 493 kts 86°
2026-05-07 19:59 36.79188 5.81733 34682 ft 494 kts 86°
2026-05-07 19:59 36.79609 5.85988 34865 ft 495 kts 87°
2026-05-07 19:59 36.79802 5.88873 34973 ft 493 kts 92°
2026-05-07 20:00 36.79910 5.93101 35153 ft 494 kts 92°
2026-05-07 20:00 36.80051 5.98838 35371 ft 495 kts 93°
2026-05-07 20:00 36.80157 6.03152 35561 ft 496 kts 92°
2026-05-07 20:00 36.80265 6.07469 35717 ft 497 kts 93°
2026-05-07 20:01 36.80372 6.11785 35851 ft 498 kts 93°
2026-05-07 20:01 36.80478 6.16128 36013 ft 499 kts 94°
2026-05-07 20:01 36.80578 6.20407 36167 ft 500 kts 94°
2026-05-07 20:01 36.80676 6.24726 36330 ft 502 kts 94°
2026-05-07 20:02 36.80771 6.29111 36500 ft 503 kts 94°
2026-05-07 20:02 36.80864 6.33481 36661 ft 504 kts 94°
2026-05-07 20:02 36.80959 6.37851 36834 ft 505 kts 94°
2026-05-07 20:02 36.81055 6.42257 36919 ft 506 kts 94°
2026-05-07 20:03 36.81244 6.51021 36916 ft 507 kts 94°
2026-05-07 20:03 36.81427 6.59818 36924 ft 507 kts 94°
2026-05-07 20:04 36.81603 6.68618 36922 ft 505 kts 94°
2026-05-07 20:04 36.81740 6.75906 36908 ft 505 kts 94°